CCA319 ZBTJ-ZSWZ

Flight info

Callsign CCA319
Flight time N/A
Altitude 37000
Route ELKUR8W ELKUR W40 YQG W142 DALIM A593 PK W116 JTN G204 SHZ B221 REMIM REMIM1F
Aircraft A319/M-SDE3FGHIRWY/LB1

Departure

Time 2026-05-01 15:28
Airport Tianjin Binhai International Airport (ZBTJ)

Arrival

Time N/A
Airport Wenzhou Longwan International Airport (ZSWZ)
Time Latitude Longitude Altitude Speed Heading
2026-05-01 15:14 39.12883 117.35074 19 ft 0 kts 25°
2026-05-01 15:19 39.12820 117.35034 19 ft 4 kts 23°
2026-05-01 15:19 39.12774 117.35042 20 ft 2 kts 313°
2026-05-01 15:19 39.12771 117.35047 19 ft 0 kts 313°
2026-05-01 15:21 39.12785 117.35026 20 ft 7 kts 307°
2026-05-01 15:22 39.12888 117.34850 21 ft 17 kts 334°
2026-05-01 15:22 39.12997 117.34785 20 ft 16 kts 335°
2026-05-01 15:22 39.13058 117.34687 19 ft 15 kts 267°
2026-05-01 15:23 39.13025 117.34556 21 ft 16 kts 259°
2026-05-01 15:23 39.13097 117.34469 20 ft 15 kts 335°
2026-05-01 15:23 39.13194 117.34408 20 ft 16 kts 334°
2026-05-01 15:23 39.13296 117.34350 19 ft 16 kts 337°
2026-05-01 15:24 39.13398 117.34287 20 ft 16 kts 333°
2026-05-01 15:24 39.13501 117.34221 19 ft 17 kts 335°
2026-05-01 15:24 39.13608 117.34158 21 ft 17 kts 335°
2026-05-01 15:24 39.13715 117.34090 20 ft 17 kts 334°
2026-05-01 15:25 39.13824 117.34023 21 ft 18 kts 334°
2026-05-01 15:25 39.13936 117.33953 19 ft 18 kts 334°
2026-05-01 15:25 39.14050 117.33885 22 ft 18 kts 334°
2026-05-01 15:25 39.14106 117.33781 19 ft 15 kts 263°
2026-05-01 15:26 39.14091 117.33726 19 ft 3 kts 245°
2026-05-01 15:26 39.14077 117.33693 20 ft 7 kts 238°
2026-05-01 15:26 39.13990 117.33665 21 ft 19 kts 160°
2026-05-01 15:26 39.13864 117.33739 20 ft 23 kts 154°
2026-05-01 15:27 39.13497 117.33963 19 ft 95 kts 154°
2026-05-01 15:27 39.12701 117.34451 21 ft 155 kts 154°
2026-05-01 15:27 39.11673 117.35088 498 ft 162 kts 154°
2026-05-01 15:28 39.09629 117.36358 1703 ft 174 kts 154°
2026-05-01 15:28 39.08466 117.37077 2052 ft 196 kts 153°
2026-05-01 15:28 39.07164 117.37878 2384 ft 219 kts 154°
2026-05-01 15:29 39.04272 117.39663 3911 ft 235 kts 157°
2026-05-01 15:29 39.02780 117.40570 4779 ft 241 kts 159°
2026-05-01 15:29 38.99396 117.40245 6154 ft 261 kts 209°
2026-05-01 15:30 38.96188 117.37842 7650 ft 267 kts 210°
2026-05-01 15:31 38.90993 117.31110 9033 ft 275 kts 240°
2026-05-01 15:31 38.89169 117.26713 10347 ft 288 kts 240°
2026-05-01 15:32 38.87132 117.21805 10857 ft 335 kts 240°
2026-05-01 15:32 38.84838 117.16272 11794 ft 360 kts 240°
2026-05-01 15:33 38.81238 117.07616 13852 ft 372 kts 241°
2026-05-01 15:34 38.77526 116.98744 15894 ft 381 kts 241°